Bangkok (Suvarnabhumi), Thailand

7:06 AM +07 on May 24, 2018 (GMT +0700)
Bangkok (Suvarnabhumi)

Weather History for VTBS - January, 2013

Change the Weather History Date:

Wednesday, January 2, 2013

  Actual Average (VTBU) Record (VTBU)
Temperature  
Mean Temperature 83 °F -  
Max Temperature 95 °F 90 °F 93 °F (2006)
Min Temperature 71 °F 69 °F 53 °F (2008)
Cooling Degree Days 18    
Growing Degree Days 33 (Base 50)    
Moisture  
Dew Point 64 °F    
Average Humidity 57    
Maximum Humidity 78    
Minimum Humidity 30    
Precipitation  
Precipitation 0.00 in 0.02 in - ()
Sea Level Pressure  
Sea Level Pressure 29.89 in    
Wind  
Wind Speed 5 mph ()    
Max Wind Speed 12 mph    
Max Gust Speed 20 mph    
Visibility 5.7 miles    
Events      
Averages and records for this station are not official NWS values.
T = Trace of Precipitation, MM = Missing Value Source: Averaged Metar Reports

Daily Weather History Graph

Daily Weather History Graph

Search for Another Location

Airport or City:

Astronomy

Jan. 02, 2013 Rise Set
Actual Time 6:39 AM +07 6:00 PM +07
Civil Twilight 6:16 AM +07 6:23 PM +07
Nautical Twilight 5:49 AM +07 6:50 PM +07
Astronomical Twilight 5:23 AM +07 7:16 PM +07
Moon 10:08 PM +07 (1/2) 9:52 AM +07 (1/2)
Length of Visible Light 12h 07m
Length of Day
11h 21m
Waning Gibbous, 79% of the Moon is Illuminated
Jan 2
Waning Gibbous
Jan 5
Last Quarter
Jan 12
New
Jan 19
First Quarter
Jan 27
Full

Hourly Weather History & Observations

Time (+07) Temp. Heat Index Dew Point Humidity Pressure Visibility Wind Dir Wind Speed Gust Speed Precip Events Conditions
12:00 AM 75.2 °F - 64.4 °F 69% 29.89 in 6.2 mi NNW 3.5 mph - N/A   Mostly Cloudy
12:30 AM 75.2 °F - 64.4 °F 69% 29.89 in 6.2 mi NNW 4.6 mph - N/A   Mostly Cloudy
1:00 AM 77 °F - 64 °F 56% 29.87 in 6 mi NE 4.6 mph - -   Haze
1:00 AM 75.2 °F - 64.4 °F 69% 29.89 in 6.2 mi North 5.8 mph - N/A   Mostly Cloudy
1:30 AM 75.2 °F - 64.4 °F 69% 29.89 in 5.6 mi NNW 6.9 mph - N/A   Mostly Cloudy
2:00 AM 75.2 °F - 64.4 °F 69% 29.89 in 5.6 mi NNW 3.5 mph - N/A   Mostly Cloudy
2:30 AM 73.4 °F - 64.4 °F 73% 29.86 in 5.6 mi NNW 3.5 mph - N/A   Mostly Cloudy
3:00 AM 73.4 °F - 64.4 °F 73% 29.86 in 5.6 mi NNW 4.6 mph - N/A   Mostly Cloudy
3:30 AM 75.2 °F - 62.6 °F 65% 29.86 in 5.6 mi North 2.3 mph - N/A   Scattered Clouds
4:00 AM 73.4 °F - 62.6 °F 69% 29.86 in 5.6 mi North 4.6 mph - N/A   Scattered Clouds
4:30 AM 73.4 °F - 64.4 °F 73% 29.86 in 5.0 mi North 4.6 mph - N/A   Scattered Clouds
5:00 AM 73.4 °F - 62.6 °F 69% 29.86 in 5.0 mi NNE 1.2 mph - N/A   Scattered Clouds
5:30 AM 73.4 °F - 62.6 °F 69% 29.86 in 5.0 mi North 2.3 mph - N/A   Scattered Clouds
6:00 AM 71.6 °F - 64.4 °F 78% 29.89 in 5.0 mi NNW 4.6 mph - N/A   Scattered Clouds
6:30 AM 71.6 °F - 64.4 °F 78% 29.89 in 5.0 mi North 4.6 mph - N/A   Scattered Clouds
7:00 AM 73 °F - 64 °F 65% 29.87 in 5 mi ENE 2.3 mph - -   Mist
7:00 AM 71.6 °F - 64.4 °F 78% 29.89 in 4.3 mi North 5.8 mph - N/A   Scattered Clouds
7:30 AM 71.6 °F - 64.4 °F 78% 29.92 in 4.3 mi North 4.6 mph - N/A   Scattered Clouds
8:00 AM 75.2 °F - 64.4 °F 69% 29.92 in 5.0 mi North 4.6 mph - N/A   Scattered Clouds
8:30 AM 77.0 °F - 64.4 °F 65% 29.95 in 4.3 mi NNW 5.8 mph - N/A   Scattered Clouds
9:00 AM 78.8 °F - 62.6 °F 57% 29.95 in 5.6 mi NNE 4.6 mph - N/A   Unknown
9:30 AM 80.6 °F 81.8 °F 62.6 °F 54% 29.95 in - NNE 4.6 mph - N/A   Clear
10:00 AM 82.4 °F 83.4 °F 62.6 °F 51% 29.95 in - NNE 8.1 mph - N/A   Clear
10:30 AM 82.4 °F 82.9 °F 60.8 °F 48% 29.95 in - NE 9.2 mph - N/A   Clear
11:00 AM 84.2 °F 85.0 °F 62.6 °F 48% 29.95 in - NE 11.5 mph - N/A   Clear
11:30 AM 86.0 °F 86.6 °F 62.6 °F 45% 29.95 in - ENE 10.4 mph - N/A   Clear
12:00 PM 86.0 °F 87.3 °F 64.4 °F 48% 29.92 in 6.2 mi East 9.2 mph - N/A   Scattered Clouds
12:30 PM 86.0 °F 86.6 °F 62.6 °F 45% 29.92 in 6.2 mi ENE 9.2 mph - N/A   Scattered Clouds
1:00 PM 92 °F - 64 °F 30% 29.87 in 5 mi ESE 2.3 mph - -   Haze
1:00 PM 87.8 °F 88.5 °F 62.6 °F 43% 29.89 in 6.2 mi ENE 8.1 mph - N/A   Scattered Clouds
1:30 PM 87.8 °F 88.5 °F 62.6 °F 43% 29.89 in 6.2 mi ESE 8.1 mph - N/A   Scattered Clouds
2:00 PM 89.6 °F 89.5 °F 60.8 °F 38% 29.86 in 6.2 mi East 8.1 mph - N/A   Scattered Clouds
2:30 PM 89.6 °F 90.1 °F 62.6 °F 40% 29.86 in 6.2 mi East 8.1 mph 19.6 mph N/A   Scattered Clouds
3:00 PM 89.6 °F 90.1 °F 62.6 °F 40% 29.86 in 6.2 mi East 8.1 mph - N/A   Scattered Clouds
3:30 PM 89.6 °F 90.1 °F 62.6 °F 40% 29.86 in 6.2 mi ENE 8.1 mph - N/A   Scattered Clouds
4:00 PM 89.6 °F 90.1 °F 62.6 °F 40% 29.83 in 6.2 mi ENE 9.2 mph - N/A   Scattered Clouds
4:30 PM 89.6 °F 89.5 °F 60.8 °F 38% 29.86 in 6.2 mi ENE 8.1 mph - N/A   Scattered Clouds
5:00 PM 89.6 °F 89.5 °F 60.8 °F 38% 29.86 in 6.2 mi ENE 8.1 mph - N/A   Scattered Clouds
5:30 PM 89.6 °F 89.5 °F 60.8 °F 38% 29.86 in 6.2 mi ENE 6.9 mph - N/A   Scattered Clouds
6:00 PM 87.8 °F 88.5 °F 62.6 °F 43% 29.86 in 6.2 mi ENE 5.8 mph - N/A   Scattered Clouds
6:30 PM 84.2 °F 85.0 °F 62.6 °F 48% 29.89 in 6.2 mi NE 4.6 mph - N/A   Scattered Clouds
7:00 PM 85 °F - 67 °F 45% 29.87 in 5 mi Calm Calm - -   Haze
7:00 PM 82.4 °F 83.9 °F 64.4 °F 54% 29.89 in 6.2 mi North 6.9 mph - N/A   Scattered Clouds
7:30 PM 80.6 °F 82.3 °F 64.4 °F 58% 29.89 in 6.2 mi North 5.8 mph - N/A   Scattered Clouds
8:00 PM 82.4 °F 83.9 °F 64.4 °F 54% 29.89 in 6.2 mi NNW 5.8 mph - N/A   Scattered Clouds
8:30 PM 78.8 °F - 64.4 °F 61% 29.92 in 6.2 mi NNW 5.8 mph - N/A   Scattered Clouds
9:00 PM 80.6 °F 82.7 °F 66.2 °F 61% 29.92 in 6.2 mi NW 4.6 mph - N/A   Scattered Clouds
9:30 PM 78.8 °F - 64.4 °F 61% 29.92 in 6.2 mi NNW 4.6 mph - N/A   Scattered Clouds
10:00 PM 78.8 °F - 68.0 °F 69% 29.92 in 6.2 mi WNW 3.5 mph - N/A   Scattered Clouds
10:30 PM 78.8 °F - 64.4 °F 61% 29.92 in 6.2 mi NNW 3.5 mph - N/A   Scattered Clouds
11:00 PM 77.0 °F - 66.2 °F 69% 29.92 in 6.2 mi NW 3.5 mph - N/A   Scattered Clouds
11:30 PM 78.8 °F - 68.0 °F 69% 29.92 in 5.6 mi East 5.8 mph - N/A   Scattered Clouds